Flag for Germany Weather past 2 weeks in Georgsmarienhütte, Lower Saxony, Germany

Now
57 °F

Passing clouds.


Feels Like: 54 °F
Forecast: 53 / 63 °F
Wind: 15 mph from Southwest

Location: Muenster / Osnabrueck

Current Time: Jul 28, 2015 at 6:26:40 AM

Latest Report: Jul 28, 2015 at 5:50 AM


Visibility: N/A

Pressure: 29.59 "Hg

Humidity: 77%

Dew point: 50 °F

Location of GeorgsmarienhütteLocation

Historic Weather in Georgsmarienhütte — Graph

°F

Georgsmarienhütte temperature yesterday

Maximum temperature yesterday: 64 °F (at 11:20 AM)
Minimum temperature yesterday: 55 °F (at 12:20 AM)
Average temperature yesterday: 61 °F

Past Weeks' High & Low Weather Summary

 TemperatureHumidityPressure
High90 °F (Jul 17, 4:20 PM)100% (Jul 13, 1:20 PM)30.12 "Hg (Jul 13, 1:20 PM)
Low50 °F (Jul 20, 4:50 AM)27% (Jul 17, 5:20 PM)29.47 "Hg (Jul 25, 7:20 AM)
Average66 °F74%29.89 "Hg
* Reported Jul 13 4:20 AM — Jul 28 4:50 AM, Georgsmarienhütte, Weather by CustomWeather, © 2015

Note: Actual official high and low records may vary slightly from our data, if they occured in-between our weather recording intervals... More about our weather records

Advertising

Georgsmarienhütte weather history for previous 24 hours

 ConditionsComfort  
Time TempWeatherWind HumidityBarometerVisibility
4:50 AM
Tue, Jul 28
59 °FPassing clouds.15 mph72%29.59 "HgN/A
4:20 AM59 °FPassing clouds.13 mph72%29.59 "HgN/A
3:50 AM59 °FPartly cloudy.13 mph72%29.59 "HgN/A
3:20 AM59 °FPartly cloudy.12 mph72%29.59 "HgN/A
2:50 AM59 °FPassing clouds.12 mph72%29.59 "HgN/A
2:20 AM59 °FPassing clouds.13 mph72%29.59 "HgN/A
1:50 AM59 °FPassing clouds.13 mph77%29.59 "HgN/A
1:20 AM61 °FPassing clouds.15 mph72%29.59 "HgN/A
12:50 AM61 °FPassing clouds.15 mph72%29.59 "HgN/A
11:20 PM
Mon, Jul 27
63 °FPassing clouds.10 mph77%29.56 "HgN/A
10:50 PM63 °FPassing clouds.10 mph77%29.56 "HgN/A
10:20 PM63 °FScattered clouds.8 mph77%29.56 "HgN/A
9:50 PM64 °FSunny.9 mph73%29.56 "Hg10 mi
9:20 PM64 °FPartly sunny.13 mph78%29.56 "HgN/A
8:50 PM64 °FLight rain. Broken clouds.15 mph78%29.56 "HgN/A
8:20 PM64 °FPartly sunny.12 mph83%29.56 "HgN/A
7:50 PM64 °FPartly sunny.15 mph83%29.56 "HgN/A
7:20 PM64 °FScattered clouds.16 mph83%29.56 "HgN/A
6:50 PM64 °FBroken clouds.16 mph78%29.56 "HgN/A
6:20 PM64 °FBroken clouds.15 mph83%29.53 "HgN/A
5:50 PM64 °FBroken clouds.12 mph88%29.53 "HgN/A
5:20 PM63 °FBroken clouds.13 mph88%29.53 "HgN/A
4:50 PM63 °FSprinkles. Partly sunny.14 mph88%29.53 "HgN/A
4:20 PM63 °FSprinkles. Partly sunny.10 mph94%29.53 "HgN/A
3:50 PM61 °FSprinkles. Partly sunny.16 mph94%29.53 "HgN/A
3:20 PM63 °FSprinkles. Partly sunny.18 mph88%29.53 "HgN/A
2:50 PM63 °FSprinkles. Partly sunny.15 mph88%29.53 "HgN/A
2:20 PM63 °FPartly sunny.17 mph88%29.50 "HgN/A
1:50 PM63 °FSprinkles. Partly sunny.20 mph88%29.50 "HgN/A
1:20 PM63 °FSprinkles. Partly sunny.18 mph88%29.50 "HgN/A
12:50 PM64 °FSprinkles. Partly sunny.21 mph78%29.50 "HgN/A
12:20 PM64 °FBroken clouds.16 mph78%29.50 "HgN/A
11:50 AM64 °FPartly sunny.17 mph78%29.50 "HgN/A
11:20 AM64 °FPartly sunny.16 mph78%29.50 "HgN/A
10:50 AM63 °FBroken clouds.13 mph83%29.50 "HgN/A
10:20 AM63 °FPartly sunny.13 mph83%29.50 "HgN/A
9:50 AM63 °FPartly sunny.13 mph83%29.50 "HgN/A
9:20 AM61 °FBroken clouds.13 mph88%29.50 "HgN/A
8:50 AM61 °FBroken clouds.12 mph88%29.50 "HgN/A
8:20 AM59 °FBroken clouds.10 mph94%29.50 "HgN/A
7:50 AM59 °FBroken clouds.9 mph94%29.50 "HgN/A
7:20 AM57 °FBroken clouds.8 mph100%29.50 "Hg5 mi
6:50 AM57 °FPartly sunny.7 mph94%29.53 "Hg4 mi
6:20 AM57 °FPassing clouds.7 mph94%29.53 "Hg4 mi
Weather by CustomWeather, © 2015

See weather overviewHow to use our weather pages